KI5BDI Weather Reports


time (UTC)temp
C
wind
direction
speed
KPH
gust
KPH
rain 1hr
cm
rain 24hr
cm
rain mn
cm
humidity
%
barometer
mb
20260506170541 12 20 8.0 12.9 0.03 0.18 0.03 94 1013.2
20260506165521 12 21 8.0 12.9 0.03 0.20 0.03 93 1014.5
20260506164522 12 15 4.8 8.0 0.03 0.23 0.03 94 1014.3
20260506163530 12 1 4.8 8.0 0.03 0.23 0.03 93 1014.4
20260506162530 12 41 4.8 6.4 0.03 0.25 0.03 94 1014.2
20260506161530 12 20 3.2 6.4 0.03 0.25 0.03 94 1014.5
20260506160522 12 18 6.4 12.9 0.03 0.23 0.03 94 1014.5
20260506155523 12 4 3.2 8.0 0.00 0.23 0.00 94 1015.2
20260506154552 12 11 3.2 6.4 0.00 0.23 0.00 93 1014.4
20260506153542 12 11 4.8 11.3 0.00 0.23 0.00 93 1014.1
20260506152523 12 1 6.4 9.7 0.00 0.23 0.00 93 1013.5
20260506151543 12 8 6.4 11.3 0.00 0.23 0.00 92 1013.2
20260506150522 12 12 6.4 11.3 0.00 0.23 0.00 92 1013.4
20260506145517 12 10 6.4 12.9 0.00 0.25 0.00 92 1013.3
20260506144518 12 358 8.0 12.9 0.00 0.25 0.00 92 1013.2
20260506143544 12 15 6.4 11.3 0.00 0.25 0.00 92 1013.1
20260506142523 12 5 8.0 16.1 0.00 0.28 0.00 91 1012.7
20260506141523 12 11 8.0 12.9 0.00 0.28 0.00 91 1012.6
20260506140518 12 3 6.4 11.3 0.00 0.28 0.00 91 1012.6
20260506135539 12 8 9.7 17.7 0.00 0.28 0.00 90 1012.1
20260506134517 12 10 8.0 12.9 0.00 0.28 0.00 90 1012.3
20260506133518 12 16 8.0 12.9 0.00 0.28 0.00 90 1012.3
20260506132518 12 14 8.0 12.9 0.00 0.28 0.00 90 1012.3
20260506131544 12 2 8.0 12.9 0.00 0.28 0.00 90 1012.2
20260506130518 12 23 8.0 14.5 0.00 0.28 0.00 91 1012.2
20260506125519 12 15 9.7 14.5 0.00 0.28 0.00 90 1012.0
20260506124538 13 6 9.7 14.5 0.00 0.28 0.00 89 1012.0
20260506123519 13 12 6.4 11.3 0.00 0.28 0.00 89 1011.8
20260506122519 13 12 6.4 12.9 0.00 0.28 0.00 88 1011.6
20260506121519 13 3 8.0 11.3 0.00 0.28 0.00 88 1011.5
20260506120540 13 6 6.4 12.9 0.00 0.28 0.00 88 1011.1
20260506115520 13 15 6.4 9.7 0.00 0.28 0.00 88 1011.0
20260506114519 13 5 6.4 11.3 0.00 0.28 0.00 89 1010.8
20260506113521 13 7 6.4 9.7 0.00 0.28 0.00 90 1010.6
20260506112601 13 15 8.0 14.5 0.00 0.28 0.00 91 1010.5
20260506111520 13 9 6.4 8.0 0.00 0.28 0.00 92 1010.2
20260506110521 13 11 4.8 6.4 0.00 0.28 0.00 92 1010.0
20260506105520 13 4 3.2 6.4 0.00 0.28 0.00 92 1009.9
20260506104520 13 5 3.2 6.4 0.00 0.28 0.00 92 1009.9
20260506103520 13 20 4.8 6.4 0.00 0.28 0.00 91 1009.7
20260506102521 13 15 4.8 8.0 0.00 0.28 0.00 90 1009.7
20260506101522 14 8 6.4 11.3 0.00 0.28 0.00 89 1009.6
20260506100521 14 12 6.4 9.7 0.00 0.28 0.00 87 1009.4
20260506095541 14 6 6.4 11.3 0.00 0.28 0.00 87 1009.4
20260506094521 14 12 4.8 8.0 0.00 0.28 0.00 88 1009.4
20260506093521 15 13 6.4 9.7 0.00 0.28 0.00 89 1009.2
20260506092521 15 13 6.4 9.7 0.00 0.28 0.00 90 1009.0
20260506091521 15 14 4.8 6.4 0.00 0.28 0.00 90 1009.0
20260506090522 15 9 4.8 6.4 0.00 0.28 0.00 90 1009.0
20260506085522 15 21 4.8 9.7 0.00 0.28 0.00 89 1009.0
20260506084522 15 10 3.2 4.8 0.00 0.28 0.00 89 1009.0
20260506083523 15 11 3.2 4.8 0.00 0.28 0.00 88 1009.0
20260506082518 15 17 6.4 9.7 0.00 0.28 0.00 87 1009.0
20260506081523 16 32 4.8 12.9 0.00 0.28 0.00 86 1008.9
20260506080522 16 26 6.4 11.3 0.00 0.28 0.00 86 1008.9
20260506073524 17 13 4.8 11.3 0.00 0.28 0.00 87 1008.8
20260506072517 17 21 4.8 9.7 0.00 0.28 0.00 87 1008.6
20260506071517 17 12 6.4 8.0 0.00 0.28 0.00 86 1008.6
20260506070517 17 10 6.4 11.3 0.00 0.28 0.00 86 1008.7
20260506062517 18 13 4.8 9.7 0.00 0.28 0.00 84 1008.4
20260506061518 18 7 6.4 11.3 0.00 0.28 0.00 84 1008.4
20260506060518 19 8 6.4 12.9 0.00 0.28 0.00 83 1008.5
20260506050539 23 345 11.3 19.3 0.00 0.28 0.00 84 1007.9
20260506044525 24 0.0 0.0 0.00 0.28 0.28 89 1007.5
20260506043525 24 0.0 0.0 0.00 0.28 0.28 89 1007.4
20260506042525 24 0.0 0.0 0.00 0.28 0.28 89 1007.3
20260506041525 24 0.0 0.0 0.00 0.28 0.28 89 1007.3
20260506040526 24 0.0 0.0 0.00 0.28 0.28 88 1007.1
20260506035526 25 0.0 0.0 0.00 0.28 0.28 89 1007.2
20260506034546 24 286 1.6 4.8 0.00 0.28 0.28 89 1007.0
20260506033526 24 234 1.6 3.2 0.00 0.28 0.28 89 1006.6
20260506032526 24 212 0.0 3.2 0.00 0.28 0.28 88 1006.3
20260506031526 24 211 0.0 1.6 0.00 0.28 0.28 88 1006.0
20260506030526 25 166 1.6 6.4 0.00 0.28 0.28 88 1005.6
20260506025547 24 182 3.2 4.8 0.00 0.28 0.28 88 1005.6
20260506024528 25 184 1.6 4.8 0.00 0.28 0.28 88 1005.4
20260506023527 25 169 1.6 4.8 0.00 0.28 0.28 88 1005.3
20260506022528 25 184 1.6 4.8 0.00 0.28 0.28 87 1005.4
20260506021528 25 178 3.2 6.4 0.00 0.28 0.28 87 1005.3
20260506020519 25 177 1.6 4.8 0.00 0.28 0.28 87 1005.2
20260506015519 25 189 1.6 8.0 0.00 0.28 0.28 86 1005.0
20260506014520 25 169 4.8 8.0 0.00 0.28 0.28 86 1004.9
20260506013520 25 175 4.8 6.4 0.00 0.28 0.28 85 1005.1
20260506012516 25 186 3.2 6.4 0.00 0.28 0.28 84 1005.0
20260506011540 26 189 1.6 4.8 0.00 0.28 0.28 84 1005.0
20260506010541 26 179 1.6 4.8 0.00 0.28 0.28 83 1004.9
20260506005520 26 176 1.6 8.0 0.00 0.28 0.28 82 1004.8
20260506004541 26 181 3.2 6.4 0.00 0.28 0.28 81 1004.8
20260506003517 26 191 3.2 6.4 0.00 0.28 0.28 81 1004.8
20260506002518 27 202 3.2 8.0 0.00 0.28 0.28 80 1004.7
20260506001520 27 199 4.8 9.7 0.00 0.28 0.28 79 1004.6
20260506000518 27 206 4.8 11.3 0.00 0.28 0.28 78 1004.7
20260505235518 27 203 3.2 8.0 0.00 0.28 0.28 77 1004.5
20260505234518 27 211 4.8 9.7 0.00 0.28 0.28 77 1004.5
20260505233538 27 206 4.8 11.3 0.00 0.28 0.28 78 1004.4
20260505232520 27 214 4.8 14.5 0.00 0.28 0.28 78 1004.3
20260505231539 27 209 8.0 14.5 0.00 0.30 0.28 76 1004.4
20260505230519 28 204 4.8 11.3 0.00 0.30 0.28 76 1004.5
20260505225520 28 211 6.4 11.3 0.00 0.30 0.28 76 1004.3
20260505224540 28 198 6.4 14.5 0.00 0.30 0.28 73 1004.1
20260505223520 28 185 8.0 19.3 0.00 0.41 0.28 74 1004.0
20260505222519 28 203 6.4 12.9 0.00 0.41 0.28 75 1004.1
20260505221520 28 190 6.4 9.7 0.00 0.41 0.28 77 1004.2
20260505220519 28 188 8.0 14.5 0.00 0.41 0.28 76 1004.2
20260505215540 28 192 9.7 20.9 0.00 0.41 0.28 75 1004.3
20260505214520 28 209 6.4 12.9 0.00 0.41 0.28 75 1004.2
20260505213517 28 195 9.7 20.9 0.00 0.41 0.28 75 1004.2
20260505212519 28 196 8.0 20.9 0.00 0.41 0.28 75 1004.5
20260505211520 28 204 9.7 16.1 0.00 0.41 0.28 73 1004.5
20260505210520 28 226 8.0 14.5 0.00 0.41 0.28 75 1004.6
20260505205539 28 189 11.3 19.3 0.00 0.41 0.28 75 1004.6
20260505204538 28 192 8.0 19.3 0.00 0.41 0.28 75 1004.6
20260505203518 28 223 8.0 17.7 0.00 0.41 0.28 75 1004.8
20260505202518 28 209 8.0 16.1 0.00 0.41 0.28 76 1004.8
20260505201518 28 207 8.0 14.5 0.00 0.41 0.28 76 1004.9
20260505200518 27 202 11.3 24.1 0.00 0.41 0.28 76 1004.9
20260505195518 27 223 9.7 19.3 0.00 0.41 0.28 77 1005.0
20260505194540 27 205 9.7 19.3 0.00 0.41 0.28 77 1005.2
20260505193539 27 201 9.7 19.3 0.00 0.41 0.28 77 1005.3
20260505192541 27 221 8.0 14.5 0.00 0.41 0.28 77 1005.4
20260505191519 27 207 9.7 19.3 0.00 0.41 0.28 77 1005.3
20260505190541 27 214 9.7 19.3 0.00 0.41 0.28 77 1005.4
20260505185520 26 222 8.0 16.1 0.00 0.41 0.28 78 1005.5
20260505184521 26 202 11.3 16.1 0.03 0.41 0.28 78 1005.4
20260505183517 26 204 9.7 20.9 0.05 0.41 0.28 79 1005.6
20260505182517 26 209 9.7 16.1 0.08 0.41 0.28 79 1005.7
20260505181520 26 210 9.7 20.9 0.10 0.41 0.28 80 1005.8
20260505180521 26 214 9.7 19.3 0.13 0.41 0.28 79 1005.8
20260505175517 26 226 11.3 20.9 0.15 0.41 0.28 78 1005.6
20260505174517 26 206 11.3 20.9 0.15 0.41 0.25 79 1005.6
20260505173518 26 222 11.3 20.9 0.15 0.38 0.23 79 1005.5
20260505172521 25 204 11.3 24.1 0.13 0.36 0.20 81 1005.6
20260505171518 25 201 9.7 19.3 0.10 0.33 0.15 82 1005.8